Track PROGRESS MS-14 now! 10-day predictions PROGRESS MS-14 is classified as:
1 45595U 20026A 21108.75193912 .00001247 00000-0 30883-4 0 9997 2 45595 51.6449 276.7004 0002605 243.6391 238.5171 15.48898035279383